RH
100 100 97 97 96 100 100 100 100 100 93 78 72 73 88 72 62 50 43 39 34 29 28 30 31 28 23 30 28 21 21 22 23 24 22 22 22 23 24 25 27 30 26 29 33
100 100 100 100 100 100 100 100 100 100 89 84 73 83 80 67 54 47 41 37 34 34 33 34 34 35 34 27 27 23 21 23 22 25 25 24 23 23 23 26 23 26 31 31 33
100 100 100 100 100 100 100 100 100 100 88 91 89 83 72 55 48 42 40 34 33 35 37 35 32 27 24 27 32 25 22 22 24 23 26 29 26 24 24 25 29 31 28 31 34
100 100 100 100 100 100 100 90 91 82 98 93 89 71 57 50 47 42 36 39 38 36 35 29 24 22 20 17 23 36 24 22 22 24 24 27 30 28 26 25 28 31 33 33 34
100 100 100 100 100 96 100 93 88 100 96 86 73 57 53 52 47 43 45 43 38 37 37 29 18 14 13 13 16 28 32 25 25 25 25 25 28 35 33 30 32 35 36 36 35
100 100 100 92 100 100 93 93 100 100 95 77 60 56 55 53 49 52 50 46 40 36 36 34 17 14 12 14 14 16 31 29 27 27 28 26 27 31 38 40 35 35 37 39 38
100 100 100 100 100 100 100 100 100 88 78 69 65 58 56 50 50 52 53 50 43 40 38 37 20 14 12 13 18 21 22 29 30 30 29 27 26 28 34 38 41 44 44 44 41
100 100 100 100 100 100 100 100 96 87 79 64 61 61 56 58 60 60 53 50 46 44 45 40 26 16 16 15 18 28 31 27 30 31 31 29 27 26 26 26 26 26 26 26 25
100 100 100 100 100 100 100 100 91 91 70 61 69 63 61 65 69 67 59 52 46 47 52 46 27 18 21 22 22 30 38 32 29 31 31 31 30 28 28 28 27 27 27 26 26
100 100 100 100 100 100 100 98 97 80 66 68 73 70 72 83 72 63 57 50 46 46 53 52 33 21 23 33 31 35 42 39 32 31 33 33 32 32 31 30 29 28 28 27 27
100 100 100 100 100 90 92 100 90 87 85 99 82 77 83 81 78 68 59 53 46 47 56 54 38 24 22 33 40 43 47 44 39 34 33 34 35 34 34 32 31 32 33 35 39
100 100 100 92 89 88 100 100 96 100 96 65 68 69 69 68 69 66 56 62 60 55 63 59 42 29 24 27 42 47 46 49 48 45 40 36 33 33 35 38 41 42 45 48 49
100 99 99 100 100 100 100 100 100 100 95 89 80 75 70 74 69 62 61 62 63 66 67 61 44 34 29 26 29 44 54 48 46 47 47 46 47 46 48 54 54 52 47 44 41
100 100 100 100 100 100 100 100 100 99 90 82 78 82 74 68 70 64 66 66 72 77 68 58 46 37 35 32 28 34 43 47 51 55 57 60 65 59 53 47 44 42 41 38 34
100 100 100 100 94 100 100 99 90 81 85 84 82 85 76 72 72 65 57 67 77 75 69 57 44 44 44 38 33 31 38 46 46 48 48 50 47 49 47 44 43 42 38 36 33
97 100 100 100 100 100 96 90 87 72 77 76 79 79 81 75 69 71 61 72 83 76 62 54 46 47 50 48 44 40 36 33 38 44 46 49 46 51 52 51 49 45 40 38 34
97 98 100 99 96 98 91 86 79 79 77 86 89 84 81 83 88 85 74 81 85 90 74 61 56 54 52 50 52 50 46 43 38 36 35 38 36 51 48 48 46 45 44 41 40
83 91 96 94 86 85 84 87 92 93 82 77 88 98 100 100 94 95 84 88 91 85 84 76 62 66 69 75 80 83 80 67 47 40 37 36 35 45 48 48 50 51 49 47 43
98 98 96 98 100 100 100 100 100 88 74 78 90 88 98 91 89 96 89 88 85 82 79 78 82 82 89 89 76 78 75 79 72 60 56 58 54 49 50 53 55 55 54 50 48
100 100 100 100 100 100 100 95 85 86 87 86 80 77 85 85 83 89 92 92 90 97 90 87 80 97 95 96 97 82 79 75 68 56 57 60 59 63 64 73 75 70 64 63 59
100 99 99 100 100 100 95 94 99 100 100 100 100 97 95 95 100 99 96 95 96 96 92 80 70 68 74 78 74 72 65 67 71 68 64 63 81 78 70 80 85 84 79 77 76
100 100 100 100 100 98 95 93 92 99 100 95 86 82 91 98 98 98 98 99 100 100 98 86 73 76 75 74 70 64 60 62 64 69 66 68 73 92 85 85 87 80 72 80 80
100 99 100 99 88 92 100 100 100 97 90 81 83 94 97 96 95 99 95 96 95 84 79 88 82 75 74 72 65 58 61 67 72 78 82 72 93 100 99 90 77 78 78 79 77
100 100 100 100 99 99 84 71 72 74 81 88 93 95 90 100 100 94 98 97 100 100 100 90 92 89 80 78 70 64 59 62 65 77 91 87 100 100 100 100 100 82 74 79 83
100 100 100 96 100 100 98 93 91 77 87 100 100 92 95 99 99 100 99 100 100 95 92 88 86 82 78 82 78 72 66 64 72 75 65 76 77 90 90 93 96 97 98 94 97
100 100 100 100 100 100 100 100 100 84 86 96 99 100 100 100 100 93 98 100 98 93 86 78 72 68 61 71 65 64 90 100 95 94 82 74 73 89 92 93 93 99 100 98 97
100 100 98 100 100 97 96 92 79 79 83 86 95 100 100 100 100 100 100 99 94 82 70 82 78 62 58 88 78 74 84 90 95 100 96 88 72 72 85 89 84 84 87 88 89
Wind_Speed
54 55 56 55 54 55 56 53 54 52 51 53 50 49 45 43 44 44 45 40 38 35 34 34 32 31 30 30 29 28 22 21 23 22 24 24 23 20 19 20 19 20 18 16 15
57 57 56 54 54 56 55 55 53 47 47 44 45 44 40 39 41 40 40 36 36 36 36 37 36 35 34 31 31 31 27 22 23 22 23 24 25 24 23 24 24 20 20 21 20
55 55 57 57 59 59 57 50 45 45 43 40 40 37 37 36 38 37 36 35 35 34 36 38 38 38 37 36 34 33 32 27 22 23 24 26 27 27 27 27 24 26 26 25 25
56 57 57 54 53 54 46 46 43 43 40 39 36 34 33 36 36 35 33 32 33 35 38 37 38 37 37 35 37 36 34 32 28 24 26 28 29 28 29 29 29 29 30 31 32
45 49 51 48 40 44 42 42 41 40 38 36 34 30 33 34 32 32 32 32 34 35 37 37 36 36 36 34 35 38 36 34 31 28 28 29 29 29 30 31 32 32 33 35 37
36 35 36 40 40 40 39 39 37 37 34 31 31 33 33 32 32 31 33 34 37 37 38 37 36 35 35 37 35 36 36 35 33 31 31 31 30 31 32 33 35 36 37 39 40
37 36 34 36 37 36 37 34 34 32 30 31 33 34 32 32 30 32 35 38 37 38 38 38 36 34 32 33 36 35 35 35 34 32 33 33 32 32 33 35 37 38 40 42 44
33 34 34 30 31 31 30 33 31 29 30 33 35 34 32 31 30 32 36 37 38 39 39 38 37 32 29 25 29 36 34 34 34 34 34 35 35 34 35 36 37 39 41 42 42
30 31 29 31 32 31 31 29 29 29 32 34 34 32 32 32 33 34 35 38 37 38 38 37 36 32 27 23 22 33 35 33 34 35 35 35 37 38 38 39 40 42 43 44 45
30 31 30 29 29 30 32 31 30 32 33 33 32 32 31 32 32 33 36 38 39 39 39 37 34 31 26 23 19 27 34 34 34 35 37 38 38 40 41 43 43 44 45 45 46
35 34 32 34 37 36 37 34 31 27 27 27 29 30 30 32 33 37 38 39 39 40 39 37 34 31 28 24 21 21 30 34 35 36 37 40 41 42 43 45 45 45 45 45 44
40 40 38 39 39 39 39 36 33 34 33 31 30 34 36 37 37 39 40 40 43 42 39 37 34 32 30 27 24 22 25 31 34 35 37 39 40 42 43 44 44 44 44 43 42
40 40 39 37 38 38 37 37 36 34 35 34 36 38 37 38 41 42 41 43 43 39 37 36 35 34 32 31 30 28 27 27 31 34 37 39 41 42 41 41 42 43 44 45 45
38 37 36 36 34 33 34 34 35 35 37 38 39 39 40 41 42 42 42 42 40 38 36 37 36 34 34 34 32 34 33 31 32 32 33 35 34 40 41 44 46 47 49 49 50
33 36 37 36 36 34 33 35 36 37 38 39 40 42 43 42 43 42 41 41 40 39 38 38 36 35 36 35 35 35 37 38 37 37 37 41 41 44 48 51 52 53 54 54 54
42 39 37 36 35 36 38 38 39 43 43 43 43 44 43 42 41 43 44 43 42 40 40 39 39 40 40 39 39 39 40 41 41 43 42 47 47 48 53 57 59 60 60 60 60
37 37 39 38 38 39 41 42 44 46 45 45 46 44 44 43 44 44 44 44 43 41 42 41 42 44 44 44 45 46 47 47 45 46 47 50 49 55 58 61 63 64 65 66 65
39 40 40 41 43 44 45 46 46 47 47 47 45 42 43 44 43 42 42 42 43 42 42 42 42 44 44 46 47 49 52 54 49 52 52 52 50 56 61 63 65 68 70 70 69
40 40 40 40 40 40 41 43 46 46 44 42 43 43 44 45 44 46 47 48 49 48 45 42 42 44 48 50 52 52 53 54 55 52 48 48 51 53 60 63 65 66 67 65 61
36 38 39 39 41 42 43 41 41 41 41 43 44 44 48 50 49 50 50 52 52 52 52 50 49 51 55 57 58 59 59 61 61 56 50 47 47 50 52 55 59 62 63 64 64
37 38 39 40 41 42 41 41 43 44 44 44 46 46 48 48 50 51 50 52 53 52 53 54 53 51 54 56 61 63 65 66 64 60 60 54 54 59 63 64 66 68 69 69 68
38 38 39 39 40 42 44 45 47 49 49 50 52 52 53 53 54 55 56 56 56 58 61 63 61 60 62 65 68 70 69 71 72 68 67 64 56 66 73 75 75 75 75 74 74
40 41 42 43 44 46 47 49 51 53 56 56 55 56 55 57 60 61 63 65 67 70 71 71 72 70 66 67 67 67 69 71 74 73 69 73 65 73 77 80 81 81 82 81 81
41 42 44 45 46 46 46 46 48 51 54 55 54 55 56 57 59 60 62 63 65 68 71 71 68 67 66 69 69 69 70 71 72 72 76 74 77 82 84 86 87 88 87 87 88
40 40 42 45 49 51 52 53 51 52 56 60 59 61 60 61 64 64 63 62 65 67 71 74 73 77 76 74 75 75 77 79 82 82 86 80 85 90 91 92 93 93 93 93 92
47 45 46 48 49 51 53 57 59 58 59 61 64 65 65 67 70 72 71 75 77 81 85 84 86 85 81 83 85 84 84 89 90 90 93 91 88 94 93 94 95 95 95 95 95
49 49 51 52 53 57 59 61 64 63 63 64 64 65 68 71 75 78 81 84 87 87 91 93 94 94 93 96 98 94 97 99 98 98 98 99 98 97 96 96 97 97 98 100 101
Wind_Direction
244 245 254 259 259 257 264 268 275 277 283 287 291 294 294 296 298 306 308 303 301 298 300 299 299 296 292 284 279 279 285 289 286 274 267 265 264 262 261 260 250 243 247 247 246
243 245 248 252 249 254 259 268 277 276 282 285 290 288 289 293 299 305 303 298 297 296 297 297 295 292 287 283 277 271 273 280 281 280 269 262 261 260 257 258 258 256 255 254 255
234 237 242 246 250 254 263 269 269 272 280 281 282 282 289 296 298 300 296 296 297 301 304 300 294 287 284 277 273 269 265 268 275 276 273 264 260 259 257 256 260 260 263 262 263
240 241 242 247 252 258 263 268 266 273 272 276 276 284 291 296 294 293 292 294 300 306 307 305 295 289 283 276 265 265 262 262 265 270 270 265 262 259 258 257 257 260 262 263 265
248 249 251 254 253 257 254 261 265 266 269 272 279 284 291 288 287 289 290 296 305 305 312 307 298 290 285 276 268 259 258 257 260 265 268 266 263 262 259 259 261 264 265 264 265
236 238 242 245 244 249 257 259 259 264 267 274 283 286 283 282 286 289 293 299 305 306 309 311 302 292 283 276 265 257 253 254 256 258 263 265 265 264 263 261 262 264 266 268 270
240 237 237 238 246 247 252 253 259 265 273 281 283 282 279 280 284 290 296 300 304 307 308 311 307 300 291 278 257 251 249 250 252 254 259 263 264 264 264 265 267 268 269 271 274
237 238 241 245 245 251 250 256 263 272 277 281 281 277 277 281 285 292 297 301 303 307 308 309 310 308 308 294 254 241 245 248 249 252 256 262 265 265 267 268 269 271 272 274 276
239 243 243 246 248 251 259 263 267 270 275 279 277 276 279 282 288 293 297 301 305 307 308 307 308 309 313 313 269 240 240 247 250 253 256 260 265 268 269 270 271 274 276 278 279
242 243 246 245 245 258 270 268 269 270 273 276 275 277 280 284 290 296 300 303 304 304 305 305 304 304 306 312 294 254 244 248 252 256 259 261 264 268 271 273 275 276 276 277 279
242 246 250 252 258 269 271 266 262 265 269 274 280 281 284 286 291 297 299 301 303 302 299 299 298 299 299 298 299 274 255 253 257 259 260 263 266 268 271 273 275 276 277 277 277
243 246 252 256 261 264 267 263 258 265 264 273 284 287 286 289 291 295 298 297 300 299 294 293 293 293 294 291 288 285 270 261 261 263 265 266 267 269 271 273 273 274 274 274 275
243 249 253 254 259 266 267 263 265 269 267 276 286 287 291 292 293 294 296 296 296 295 292 287 288 289 290 288 286 279 276 275 270 267 267 269 271 272 271 271 272 272 273 275 277
244 245 247 251 257 258 259 259 262 269 277 281 285 288 290 292 291 293 293 294 294 292 290 285 287 287 287 286 285 282 277 273 272 272 272 272 270 273 273 272 273 274 275 276 277
245 248 251 252 257 258 259 261 265 273 276 283 286 287 290 290 290 289 292 291 291 289 286 284 282 285 285 283 282 281 278 274 271 270 271 272 273 275 276 278 278 278 279 279 280
246 250 253 256 258 260 263 268 273 276 279 285 286 286 287 288 288 288 293 289 289 289 287 285 281 282 282 281 279 277 276 273 271 271 271 271 273 275 276 278 279 280 281 281 282
251 255 254 257 262 266 269 274 276 279 283 285 284 285 286 284 286 288 291 289 288 287 286 285 282 283 283 283 282 281 279 275 273 272 270 270 273 273 274 276 278 280 282 282 283
253 257 260 262 265 269 272 275 277 277 282 283 282 283 282 283 287 288 291 292 291 289 287 284 282 282 283 283 284 284 282 280 278 274 274 277 278 276 278 279 280 281 282 283 283
258 260 264 268 272 272 270 272 278 280 281 282 282 283 282 284 283 285 286 287 287 287 287 281 281 283 284 284 286 284 286 286 282 280 280 280 278 277 277 278 278 278 279 282 286
256 260 262 262 267 270 272 275 279 282 286 287 286 285 284 284 286 286 287 287 288 286 285 282 279 280 281 282 282 283 283 283 284 282 280 280 279 276 275 276 278 279 283 284 286
259 261 261 261 263 264 270 277 281 282 283 284 286 287 287 287 286 287 289 288 287 285 282 280 279 279 282 283 283 282 282 282 281 281 277 275 275 271 271 272 275 278 281 283 283
259 261 261 263 267 269 275 279 282 283 285 285 284 283 281 279 279 283 284 283 279 278 277 278 278 279 281 283 282 282 282 282 280 279 279 278 276 273 272 273 275 279 283 281 280
262 261 263 267 271 275 278 280 282 284 283 284 284 285 285 284 283 284 284 281 279 280 282 284 285 286 285 284 282 282 281 279 280 280 281 278 278 272 271 274 276 278 281 281 282
266 265 266 269 274 275 281 285 290 291 287 285 286 286 287 286 284 282 280 280 282 282 282 285 285 285 285 283 281 282 282 283 282 280 276 277 274 276 275 275 276 277 278 279 279
268 270 273 277 279 280 282 286 290 290 289 284 284 284 286 283 282 282 280 280 281 281 287 284 285 286 285 282 280 281 281 282 281 280 280 278 277 274 274 275 276 277 277 277 278
271 272 276 277 280 282 284 284 287 285 285 284 282 283 283 281 281 281 279 277 280 282 282 282 280 280 281 282 282 280 280 280 282 280 279 279 279 275 274 274 274 275 276 276 276
274 277 279 280 279 283 286 288 288 286 285 284 283 282 282 281 280 279 279 279 282 284 285 284 284 283 282 283 282 281 280 280 281 279 278 278 279 276 274 275 275 274 274 275 275